This is the latest recevied weather packets stored in our database for station/object JL1CBB-13. If no packets are shown the sender has not sent any weather packets the latest 10 day(s).
| Time | Temp. | Humidity | Pressure | Rain* | Wind** | Luminosity | Snow |
|---|---|---|---|---|---|---|---|
| 1777866334 | 29.44° C | 49% | 997 hPa | 0 mm | - | - | - |
| 1777865734 | 30° C | 50% | 997 hPa | 0 mm | - | - | - |
| 1777865136 | 30° C | 51% | 998 hPa | 0 mm | - | - | - |
| 1777864536 | 30° C | 51% | 998 hPa | 0 mm | - | - | - |
| 1777863936 | 31.11° C | 50% | 998 hPa | 0 mm | - | - | - |
| 1777863335 | 31.67° C | 50% | 999 hPa | 0 mm | - | - | - |
| 1777862735 | 31.67° C | 49% | 999 hPa | 0 mm | - | - | - |
| 1777862135 | 31.11° C | 52% | 999 hPa | 0 mm | - | - | - |
| 1777861535 | 29.44° C | 58% | 999 hPa | 0 mm | - | - | - |
| 1777860935 | 28.89° C | 58% | 999 hPa | 0 mm | - | - | - |
| 1777860335 | 30° C | 58% | 998 hPa | 0 mm | - | - | - |
| 1777859735 | 29.44° C | 59% | 999 hPa | 0 mm | - | - | - |
| 1777859135 | 29.44° C | 59% | 999 hPa | 0 mm | - | - | - |
| 1777858535 | 30° C | 59% | 999 hPa | 0 mm | - | - | - |
| 1777857934 | 29.44° C | 59% | 999 hPa | 0 mm | - | - | - |
| 1777857334 | 28.89° C | 60% | 999 hPa | 0 mm | - | - | - |
| 1777856734 | 28.89° C | 63% | 999 hPa | 0 mm | - | - | - |
| 1777856134 | 28.89° C | 63% | 999 hPa | 0 mm | - | - | - |
| 1777855534 | 28.89° C | 66% | 999 hPa | 0 mm | - | - | - |
| 1777854934 | 27.22° C | 72% | 999 hPa | 0 mm | - | - | - |
| 1777854334 | 28.33° C | 71% | 999 hPa | 0 mm | - | - | - |
| 1777853734 | 28.33° C | 72% | 999 hPa | 0 mm | - | - | - |
| 1777853134 | 27.78° C | 74% | 999 hPa | 0 mm | - | - | - |
| 1777852534 | 26.67° C | 79% | 999 hPa | 0 mm | - | - | - |
| 1777851934 | 25° C | 86% | 999 hPa | 0 mm | - | - | - |
* Rain latest hour (hover to see other rain measurements)
** Current wind speed in m/s (hover to see current wind gust speed)